EJU56GB LOWI-LKPR

Flight info

Callsign EJU56GB
Flight time N/A
Altitude 29000
Route RTT DCT ERANI DCT MATIG DCT ADLET DCT TIVAP/N0420F300 DCT BUDEX DCT APRAQ
Aircraft A320/M-SDE3FGHIRWY/LB1

Departure

Time 2026-05-06 17:21
Airport Innsbruck Airport (LOWI)

Arrival

Time N/A
Airport Václav Havel Airport Prague (LKPR)
Time Latitude Longitude Altitude Speed Heading
2026-05-06 16:57 47.25795 11.34810 1899 ft 0 kts 171°
2026-05-06 17:12 47.25796 11.34810 1899 ft 0 kts 171°
2026-05-06 17:13 47.25817 11.34805 1888 ft 4 kts 176°
2026-05-06 17:13 47.25843 11.34808 1888 ft 4 kts 214°
2026-05-06 17:13 47.25853 11.34833 1887 ft 4 kts 261°
2026-05-06 17:13 47.25858 11.34873 1892 ft 4 kts 261°
2026-05-06 17:14 47.25860 11.34897 1897 ft 0 kts 261°
2026-05-06 17:16 47.25860 11.34891 1897 ft 3 kts 261°
2026-05-06 17:16 47.25856 11.34856 1892 ft 3 kts 261°
2026-05-06 17:16 47.25851 11.34807 1891 ft 7 kts 261°
2026-05-06 17:16 47.25841 11.34718 1899 ft 9 kts 261°
2026-05-06 17:17 47.25832 11.34633 1894 ft 8 kts 261°
2026-05-06 17:17 47.25823 11.34558 1899 ft 9 kts 261°
2026-05-06 17:17 47.25813 11.34460 1899 ft 11 kts 261°
2026-05-06 17:17 47.25800 11.34346 1895 ft 11 kts 261°
2026-05-06 17:18 47.25790 11.34246 1893 ft 9 kts 261°
2026-05-06 17:18 47.25777 11.34129 1892 ft 14 kts 261°
2026-05-06 17:18 47.25772 11.33988 1894 ft 13 kts 280°
2026-05-06 17:18 47.25809 11.33878 1894 ft 11 kts 306°
2026-05-06 17:19 47.25850 11.33797 1897 ft 7 kts 306°
2026-05-06 17:19 47.25870 11.33757 1898 ft 6 kts 306°
2026-05-06 17:19 47.25903 11.33692 1901 ft 8 kts 308°
2026-05-06 17:19 47.25923 11.33677 1899 ft 2 kts 352°
2026-05-06 17:20 47.25945 11.33699 1902 ft 9 kts 68°
2026-05-06 17:20 47.25948 11.33743 1901 ft 0 kts 79°
2026-05-06 17:20 47.25950 11.33758 1899 ft 17 kts 80°
2026-05-06 17:20 47.26018 11.34384 1902 ft 104 kts 81°
2026-05-06 17:21 47.26154 11.35784 1997 ft 159 kts 86°
2026-05-06 17:21 47.26319 11.37377 2788 ft 158 kts 82°
2026-05-06 17:21 47.26530 11.38979 3607 ft 160 kts 80°
2026-05-06 17:21 47.26763 11.40586 4134 ft 165 kts 79°
2026-05-06 17:22 47.27032 11.42323 4446 ft 183 kts 77°
2026-05-06 17:22 47.27346 11.44234 4765 ft 199 kts 75°
2026-05-06 17:22 47.27746 11.46182 5403 ft 198 kts 74°
2026-05-06 17:22 47.28117 11.48130 6053 ft 198 kts 77°
2026-05-06 17:23 47.28487 11.50116 6570 ft 204 kts 77°
2026-05-06 17:23 47.28865 11.52165 7067 ft 211 kts 78°
2026-05-06 17:23 47.29250 11.54262 7665 ft 212 kts 78°
2026-05-06 17:23 47.29631 11.56381 8228 ft 215 kts 78°
2026-05-06 17:24 47.30017 11.58520 8786 ft 218 kts 78°
2026-05-06 17:24 47.30409 11.60670 9343 ft 221 kts 77°
2026-05-06 17:24 47.30813 11.62865 9888 ft 224 kts 77°
2026-05-06 17:24 47.31328 11.65050 10386 ft 229 kts 63°
2026-05-06 17:25 47.32237 11.67108 10566 ft 253 kts 56°
2026-05-06 17:25 47.33296 11.69343 10779 ft 278 kts 56°
2026-05-06 17:25 47.34457 11.71771 11086 ft 302 kts 55°
2026-05-06 17:25 47.35713 11.74398 11336 ft 326 kts 55°
2026-05-06 17:26 47.37066 11.77237 11575 ft 349 kts 55°
2026-05-06 17:26 47.38483 11.80223 12093 ft 360 kts 55°
2026-05-06 17:26 47.39855 11.83359 12754 ft 366 kts 64°
2026-05-06 17:26 47.40912 11.86787 13511 ft 370 kts 66°
2026-05-06 17:27 47.41971 11.90283 14131 ft 375 kts 66°
2026-05-06 17:27 47.43039 11.93810 14812 ft 378 kts 67°
2026-05-06 17:27 47.44121 11.97376 15445 ft 383 kts 67°
2026-05-06 17:27 47.45216 12.00978 16048 ft 387 kts 67°
2026-05-06 17:28 47.46327 12.04620 16696 ft 391 kts 67°
2026-05-06 17:28 47.47454 12.08312 17338 ft 395 kts 67°
2026-05-06 17:28 47.48586 12.12029 17929 ft 400 kts 67°
2026-05-06 17:28 47.49729 12.15800 18503 ft 404 kts 68°
2026-05-06 17:29 47.50885 12.19628 19048 ft 407 kts 68°
2026-05-06 17:29 47.52038 12.23450 19590 ft 410 kts 68°
2026-05-06 17:29 47.53205 12.27323 20149 ft 414 kts 68°
2026-05-06 17:29 47.54379 12.31227 20717 ft 417 kts 68°
2026-05-06 17:30 47.55561 12.35165 21273 ft 421 kts 68°
2026-05-06 17:30 47.56761 12.39172 21775 ft 425 kts 68°
2026-05-06 17:30 47.57955 12.43163 22306 ft 428 kts 68°
2026-05-06 17:30 47.59166 12.47211 22834 ft 431 kts 68°
2026-05-06 17:31 47.60384 12.51284 23326 ft 435 kts 69°
2026-05-06 17:31 47.61612 12.55404 23751 ft 438 kts 69°
2026-05-06 17:31 47.62846 12.59551 24148 ft 442 kts 69°
2026-05-06 17:31 47.64090 12.63742 24539 ft 446 kts 69°
2026-05-06 17:32 47.65324 12.67916 24946 ft 449 kts 69°
2026-05-06 17:32 47.66578 12.72168 25344 ft 452 kts 69°
2026-05-06 17:32 47.67843 12.76460 25743 ft 455 kts 69°
2026-05-06 17:32 47.69115 12.80775 26123 ft 458 kts 69°
2026-05-06 17:33 47.70393 12.85123 26490 ft 461 kts 69°
2026-05-06 17:33 47.71680 12.89506 26833 ft 464 kts 69°
2026-05-06 17:33 47.73062 12.93845 27201 ft 468 kts 63°
2026-05-06 17:33 47.74857 12.97921 27538 ft 473 kts 53°
2026-05-06 17:34 47.76953 13.01701 27864 ft 476 kts 51°
2026-05-06 17:34 47.79075 13.05491 28210 ft 478 kts 51°
2026-05-06 17:34 47.81207 13.09316 28548 ft 481 kts 51°
2026-05-06 17:34 47.83343 13.13166 28775 ft 483 kts 51°
2026-05-06 17:35 47.85454 13.16979 28794 ft 469 kts 51°
2026-05-06 17:35 47.89542 13.24385 28771 ft 460 kts 51°
2026-05-06 17:36 47.95624 13.35440 28731 ft 459 kts 51°
2026-05-06 17:36 47.99673 13.42811 28705 ft 459 kts 52°
2026-05-06 17:37 48.03699 13.50158 28697 ft 459 kts 52°
2026-05-06 17:37 48.07949 13.57217 28696 ft 459 kts 45°
2026-05-06 17:38 48.12473 13.63870 28690 ft 459 kts 45°
2026-05-06 17:38 48.17035 13.70578 28689 ft 459 kts 45°
2026-05-06 17:39 48.21579 13.77296 28686 ft 460 kts 45°
2026-05-06 17:39 48.26348 13.83640 28604 ft 456 kts 29°
2026-05-06 17:40 48.29219 13.85540 28466 ft 448 kts 12°
2026-05-06 17:40 48.32262 13.86339 28336 ft 443 kts
2026-05-06 17:40 48.35316 13.86904 28093 ft 442 kts
2026-05-06 17:40 48.38358 13.87467 27833 ft 440 kts
2026-05-06 17:41 48.41398 13.88036 27562 ft 438 kts
2026-05-06 17:41 48.44414 13.88609 27306 ft 436 kts
2026-05-06 17:41 48.47417 13.89186 27046 ft 435 kts
2026-05-06 17:41 48.50413 13.89765 26797 ft 433 kts
2026-05-06 17:42 48.53388 13.90343 26543 ft 431 kts
2026-05-06 17:42 48.56362 13.90919 26290 ft 429 kts
2026-05-06 17:42 48.59306 13.91499 26041 ft 428 kts
2026-05-06 17:42 48.62262 13.92080 25794 ft 426 kts
2026-05-06 17:43 48.65191 13.92651 25546 ft 424 kts
2026-05-06 17:43 48.68117 13.93212 25200 ft 422 kts
2026-05-06 17:43 48.71026 13.93771 24846 ft 420 kts
2026-05-06 17:43 48.73914 13.94327 24493 ft 418 kts
2026-05-06 17:44 48.76796 13.94880 24135 ft 416 kts
2026-05-06 17:44 48.79658 13.95429 23784 ft 413 kts
2026-05-06 17:44 48.82497 13.95974 23439 ft 411 kts
2026-05-06 17:44 48.85328 13.96518 23063 ft 409 kts
2026-05-06 17:45 48.88143 13.97067 22655 ft 406 kts
2026-05-06 17:45 48.90934 13.97618 22250 ft 404 kts
2026-05-06 17:45 48.93712 13.98169 21857 ft 401 kts
2026-05-06 17:45 48.96470 13.98714 21464 ft 399 kts
2026-05-06 17:46 48.99209 13.99250 21083 ft 396 kts
2026-05-06 17:46 49.01940 13.99783 20700 ft 393 kts
2026-05-06 17:46 49.04647 14.00311 20326 ft 391 kts
2026-05-06 17:46 49.07335 14.00835 19953 ft 388 kts
2026-05-06 17:47 49.10004 14.01353 19588 ft 386 kts
2026-05-06 17:47 49.12663 14.01872 19223 ft 383 kts
2026-05-06 17:47 49.15294 14.02394 18867 ft 381 kts
2026-05-06 17:47 49.17913 14.02915 18513 ft 378 kts
2026-05-06 17:48 49.20520 14.03433 18165 ft 376 kts
2026-05-06 17:48 49.23104 14.03945 17784 ft 374 kts
2026-05-06 17:48 49.25676 14.04455 17386 ft 371 kts
2026-05-06 17:48 49.28224 14.04957 16994 ft 369 kts
2026-05-06 17:49 49.30762 14.05456 16600 ft 366 kts
2026-05-06 17:49 49.33279 14.05952 16214 ft 363 kts
2026-05-06 17:49 49.35779 14.06446 15833 ft 361 kts
2026-05-06 17:49 49.38258 14.06939 15456 ft 358 kts
2026-05-06 17:50 49.40718 14.07430 15077 ft 355 kts
2026-05-06 17:50 49.43161 14.07918 14715 ft 353 kts
2026-05-06 17:50 49.45558 14.08397 14362 ft 350 kts
2026-05-06 17:50 49.47969 14.08878 14006 ft 348 kts
2026-05-06 17:51 49.50363 14.09356 13681 ft 345 kts
2026-05-06 17:51 49.52727 14.09829 13439 ft 343 kts
2026-05-06 17:51 49.55091 14.10301 13173 ft 341 kts
2026-05-06 17:51 49.57438 14.10767 12914 ft 340 kts
2026-05-06 17:52 49.59775 14.11235 12734 ft 339 kts
2026-05-06 17:52 49.62113 14.11706 12738 ft 338 kts
2026-05-06 17:52 49.64447 14.12177 12631 ft 339 kts
2026-05-06 17:52 49.66773 14.12745 12363 ft 337 kts
2026-05-06 17:53 49.69070 14.13437 12105 ft 336 kts
2026-05-06 17:53 49.71346 14.14190 11854 ft 332 kts 10°
2026-05-06 17:53 49.73568 14.14944 11697 ft 322 kts 10°
2026-05-06 17:53 49.75715 14.15667 11569 ft 312 kts 10°
2026-05-06 17:54 49.77807 14.16360 11387 ft 305 kts
2026-05-06 17:54 49.79872 14.17030 11144 ft 302 kts
2026-05-06 17:54 49.81907 14.17832 10898 ft 300 kts 18°
2026-05-06 17:54 49.83794 14.19121 10766 ft 293 kts 28°
2026-05-06 17:55 49.85067 14.20357 10658 ft 286 kts 35°
2026-05-06 17:55 49.86573 14.22313 10490 ft 280 kts 45°
2026-05-06 17:55 49.87846 14.24578 10211 ft 278 kts 55°
2026-05-06 17:55 49.88635 14.27260 9895 ft 272 kts 84°
2026-05-06 17:56 49.88745 14.30148 9576 ft 269 kts 94°
2026-05-06 17:56 49.88710 14.33047 9212 ft 268 kts 95°
2026-05-06 17:56 49.88657 14.35908 8880 ft 265 kts 95°
2026-05-06 17:56 49.88616 14.38762 8546 ft 264 kts 90°
2026-05-06 17:57 49.88785 14.41592 8223 ft 263 kts 86°
2026-05-06 17:57 49.89017 14.44393 7901 ft 261 kts 85°
2026-05-06 17:57 49.89211 14.46635 7641 ft 259 kts 85°
2026-05-06 17:57 49.89449 14.49377 7434 ft 252 kts 85°
2026-05-06 17:58 49.89682 14.51980 7305 ft 243 kts 84°
2026-05-06 17:58 49.90284 14.54401 7140 ft 239 kts 53°
2026-05-06 17:58 49.91499 14.56146 6882 ft 239 kts 37°
2026-05-06 17:58 49.92990 14.57191 6619 ft 236 kts
2026-05-06 17:59 49.94603 14.56919 6075 ft 243 kts 333°
2026-05-06 17:59 49.95883 14.55248 5528 ft 242 kts 304°
2026-05-06 17:59 49.96874 14.53200 5171 ft 230 kts 304°
2026-05-06 17:59 49.97824 14.51253 4878 ft 224 kts 305°
2026-05-06 18:00 49.98757 14.49341 4586 ft 220 kts 305°
2026-05-06 18:00 49.99657 14.47496 4326 ft 207 kts 306°
2026-05-06 18:00 50.00502 14.45764 4017 ft 195 kts 306°
2026-05-06 18:00 50.01295 14.44134 3760 ft 182 kts 306°
2026-05-06 18:01 50.02045 14.42595 3536 ft 176 kts 307°